Regional Weather Roundup
Issued by NWS Newport/Morehead, NC

Current Version | Previous Version | Graphics & Text | Print | Product List | Glossary On
Versions: 1 2 3 4 5 6 7 8 9 10 11 12 13 14 15 16 17 18 19 20 21 22 23 24 25 26 27 28 29 30 31 32 33 34 35 36 37 38 39 40 41 42 43 44 45 46 47 48 49 50
000 ASUS42 KMHX 252322 RWRMHX WEATHER ROUNDUP FOR EASTERN NORTH CAROLINA NATIONAL WEATHER SERVICE NEWPORT/MOREHEAD CITY NC 600 PM EST TUE NOV 25 2014 NOTE: "FAIR" INDICATES FEW OR NO CLOUDS BELOW 12,000 FEET WITH NO SIGNIFICANT WEATHER AND/OR OBSTRUCTIONS TO VISIBILITY NCZ015>017-031-032-045>047-102-103-260000- NORTH COAST CITY SKY/WX TMP DP RH WIND PRES REMARKS EDENTON DRIZZLE 58 56 94 NE10 30.09R ELIZABETH CITY LGT RAIN 57 50 77 N12 30.10R KITTY HAWK CLOUDY 59 59 99 CALM 30.05R FOG MANTEO CLOUDY 58 58 98 CALM 30.08R $$ NCZ045>047-081-094-103-104-260000- CENTRAL COAST CITY SKY/WX TMP DP RH WIND PRES REMARKS FRISCO CLOUDY 61 61 100 CALM 30.05R SWANQUARTER N/A 59 N/A N/A N1 30.00S $$ NCZ095-097-098-100-101-260000- SOUTHERN COAST CITY SKY/WX TMP DP RH WIND PRES REMARKS BEAUFORT CLOUDY 64 62 93 CALM 30.05R CEDAR ISLAND N/A 59 N/A N/A N2 30.09S JACKSONVILLE CLOUDY 63 61 93 NE6 30.03F PINEY ISLAND CLOUDY 63 59 87 N5 30.02F WILMINGTON CLOUDY 64 62 93 E5 30.03S $$ NCZ011>013-027>030-043-044-078>080-089-090>093-098-260000- COASTAL PLAIN CITY SKY/WX TMP DP RH WIND PRES REMARKS AHOSKIE CLOUDY 55 52 89 N6 30.08F CLINTON LGT RAIN 55 55 99 NE5 30.07R ELIZABETHTOWN LGT RAIN 63 63 100 CALM 30.03F GOLDSBORO CLOUDY 54 54 100 CALM 30.06R GREENVILLE DRIZZLE 55 54 94 CALM 30.08F HAVELOCK CLOUDY 64 61 90 N5 30.06R KENANSVILLE LGT RAIN 55 52 90 N6 30.06F KINSTON CLOUDY 54 54 100 NE3 30.08R NEW BERN CLOUDY 65 61 87 CALM 30.06R RICHLANDS CLOUDY 63 59 88 CALM 30.05S ROCKY MOUNT LGT RAIN 53 50 89 CALM 30.07S WASHINGTON CLOUDY 56 55 93 N5 30.07S WHITEVILLE LGT RAIN 63 63 100 CALM 30.01F $$ AMZ130-135-150-152-154-156-158-170-250-252-270-ANZ085-086-088-633-658-670-260000- MARINE OBSERVATIONS STATION/POSITION TIME TEMP WIND PRES WAVE SWELL AIR SEA DIR/SP/G HT/PER HT/PER (UTC) (F) (DEG/KT/KT) (MB) (FT/S) (FT/S) CHESAPEAKE LIGHT 2300 56 60/ 18/ 20 1019.0 64 E VA BEACH 2300 62 64 280/ 6/ 8 1017.6 4/ 8 3/ 8 DUCK 2300 56 59 360/ 14/ 16 1017.8 2 E DUCK 2300 58 N/A 3/ 8 10 NE DUCK 2300 59 N/A 4/ 9 2/11 OREGON INLET 2300 59 58 CALM / 1 1017.6 13E OREGON INLT 2300 62 N/A 4/ 9 2/11 HATTERAS CG 2300 61 63 300/ 3/ 3 1018.2 DIAMOND BUOY 2300 67 30/ 4/ 6 1017.5 5/ 7 5/ 7 17 S OCRACOKE NOT AVBL CAPE LOOKOUT 2300 62 70/ 5/ 5 1017.2 BEAUFORT LAB 2300 64 59 340/ 4/ 4 1016.4 30 SE NEW RIVER 2300 67 69 60/ 6/ 8 1017.6 4/ 8 3/ 8 5 SE WRIGHTSVLE 2200 58 59 30/ 4/ 4 1016.1 225 S CAPE HAT 2208 75 74 190/ 16/ 17 1018.4 7/ 7 5/ 9 41 SE CHARLESTON 2300 69 74 50/ 8/ 10 1015.6 4/ 8 3/ 8 $$

USA.gov is the U.S. government's official web portal to all federal, state and local government web resources and services.